[[{"header":{"parameterUnit":"m.s-1","parameterCategory":1,"la1":30.2991,"la2":30.254,"lo1":-89.0895,"lo2":-89.0444,"dy":0.0017,"dx":0.0017,"nx":28,"ny":28,"refTime":"2025-02-03T03:00:00:Z","depth":0,"parameterNumber":2,"parameterNumberName":"U-component_of_WINDS"},"data":[0,0,0,0,0,0,0,0,0,0,0,0,0,0,0,0,0,0,0,0,0,0,0,0,0,0,0,0,0,0,0,0,0,0,0,0,0,0,0,0,0,0,0,0,0,0,0,0,0,0,0,0,0,0,0,0,0,0,-1.7073,-1.7074,0,-1.7082,-1.7082,-1.7082,-1.7049,-1.7048,-1.7047,-1.7047,-1.7055,-1.7056,-1.7057,0,0,0,0,0,0,0,0,0,0,0,0,0,-1.7029,-1.703,-1.7073,-1.7074,-1.7074,-1.7082,-1.7082,-1.7082,-1.705,-1.7048,-1.7047,-1.7046,-1.7055,-1.7056,-1.7057,0,0,0,0,0,0,0,0,0,0,0,0,0,-1.7044,-1.703,-1.7073,-1.7058,-1.7057,-1.7082,-1.7082,-1.7082,-1.705,-1.7048,-1.7047,-1.7046,-1.7054,-1.7056,-1.7057,-1.7097,0,0,-1.7063,-1.7063,0,0,0,0,0,0,0,0,-1.7043,-1.7046,-1.7061,-1.706,-1.7058,-1.7063,-1.7069,-1.7087,-1.705,-1.7053,-1.7047,-1.7045,-1.7059,-1.706,-1.7065,-1.7097,-1.7098,-1.7063,-1.7064,-1.7064,-1.7065,0,0,0,0,0,0,0,-1.7042,-1.7045,-1.7077,-1.7061,-1.7059,-1.7051,-1.7052,-1.7072,-1.7064,-1.7052,-1.705,-1.7051,-1.7058,-1.7063,-1.7065,-1.7098,-1.7063,-1.7064,-1.7065,-1.7066,-1.7162,-1.7163,0,0,0,0,0,0,-1.7043,-1.7044,-1.7076,-1.7077,-1.7047,-1.7053,-1.7054,-1.7063,-1.7063,-1.7062,-1.7053,-1.705,-1.7061,-1.7063,-1.7065,-1.711,-1.7064,-1.7066,-1.7067,-1.716,-1.7162,-1.7164,0,0,0,0,0,0,-1.7042,-1.7046,-1.7076,-1.706,-1.7063,-1.7055,-1.7066,-1.7064,-1.7069,-1.7064,-1.7062,-1.706,-1.706,-1.7063,-1.7089,-1.711,-1.7067,-1.7068,-1.7159,-1.7161,-1.7163,-1.7202,0,0,0,0,0,0,-1.7041,-1.7046,-1.7061,-1.7061,-1.7064,-1.71,-1.7067,-1.7065,-1.7072,-1.7069,-1.707,-1.7069,-1.7059,-1.7087,-1.7091,-1.7112,-1.707,-1.7157,-1.716,-1.7162,-1.7199,-1.7205,-1.7211,0,0,0,0,0,-1.704,-1.7072,-1.7062,-1.7066,-1.7083,-1.7102,-1.7104,-1.7092,-1.7074,-1.7089,-1.7085,-1.7069,-1.7107,-1.709,-1.7094,-1.7116,-1.7155,-1.7159,-1.7162,-1.7196,-1.7204,-1.7211,0,0,0,0,0,0,-1.7075,-1.7072,-1.7061,-1.7094,-1.7098,-1.7096,-1.7114,-1.7101,-1.711,-1.7107,-1.7092,-1.7092,-1.7121,-1.7121,-1.7101,-1.7153,-1.7128,-1.7133,-1.7152,-1.716,-1.7166,-1.7165,-1.7071,0,0,0,0,0,-1.7087,-1.7103,-1.7098,-1.7128,-1.7131,-1.7122,-1.713,-1.7121,-1.7125,-1.7126,-1.7125,-1.7129,-1.7142,-1.7151,-1.7163,-1.7199,-1.7198,-1.7216,-1.7222,-1.7227,-1.7231,-1.7249,-1.7257,-1.7175,-1.7175,-1.7175,0,0,-1.7111,-1.7111,-1.7122,-1.7135,-1.7138,-1.7154,-1.7124,-1.7143,-1.7155,-1.7129,-1.7154,-1.7153,-1.7157,-1.7188,-1.7201,-1.7189,-1.7253,-1.7231,-1.7235,-1.7236,-1.7253,-1.7261,-1.7268,-1.7178,-1.7177,-1.7177,0,0,-1.7164,-1.7166,-1.719,-1.7193,-1.7197,-1.7191,-1.7197,-1.7197,-1.7195,-1.7219,-1.72,-1.7214,-1.7237,-1.7241,-1.7245,-1.7299,-1.7284,-1.7303,-1.7335,-1.7353,-1.7359,-1.7365,-1.7383,-1.739,-1.7307,-1.7307,-1.7307,0,-1.7193,-1.7217,-1.7204,-1.7224,-1.723,-1.7208,-1.7232,-1.7236,-1.7243,-1.7248,-1.7234,-1.7262,-1.7263,-1.7294,-1.7307,-1.7312,-1.7318,-1.7303,-1.7359,-1.7365,-1.737,-1.7387,-1.7394,-1.7309,-1.7309,-1.7309,-1.7309,0,-1.7253,-1.727,-1.7289,-1.7297,-1.7305,-1.7327,-1.7317,-1.7327,-1.7317,-1.7313,-1.7338,-1.7338,-1.735,-1.7356,-1.7347,-1.7386,-1.7378,-1.7362,-1.7336,-1.738,-1.7396,-1.7403,-1.7313,-1.7312,-1.7311,-1.7311,0,0,-1.7328,-1.7328,-1.7335,-1.7338,-1.7341,-1.7353,-1.7374,-1.7385,-1.7394,-1.74,-1.7417,-1.7436,-1.7421,-1.7427,-1.7417,-1.7433,-1.7474,-1.7415,-1.7414,-1.7425,-1.7517,-1.7529,-1.7537,-1.7465,-1.7466,-1.7467,-1.7516,0,-1.7379,-1.7415,-1.7404,-1.7439,-1.7454,-1.7433,-1.7451,-1.7455,-1.7451,-1.7463,-1.7459,-1.7473,-1.7452,-1.7455,-1.747,-1.7466,-1.7493,-1.7463,-1.748,-1.748,-1.7479,-1.7545,-1.7558,-1.7605,-1.7523,-1.7524,-1.7525,0,-1.7444,-1.7452,-1.7489,-1.7488,-1.7494,-1.7511,-1.7519,-1.7531,-1.7535,-1.7531,-1.7537,-1.7524,-1.7544,-1.7518,-1.7546,-1.7525,-1.7532,-1.7531,-1.7532,-1.7533,-1.7505,-1.7547,-1.762,-1.7627,-1.7534,-1.7534,-1.7533,0,-1.7494,-1.7514,-1.7539,-1.7542,-1.7542,-1.7554,-1.7555,-1.7556,-1.7564,-1.7571,-1.7576,-1.7586,-1.7591,-1.7599,-1.7589,-1.7572,-1.7618,-1.7591,-1.7615,-1.7615,-1.7625,-1.7624,-1.7699,-1.763,-1.763,-1.763,-1.763,0,-1.7552,-1.7575,-1.7561,-1.7577,-1.7602,-1.7589,-1.7614,-1.7613,-1.7614,-1.7629,-1.7611,-1.7625,-1.7611,-1.7624,-1.7616,-1.7639,-1.7642,-1.7639,-1.7637,-1.7641,-1.7641,-1.7644,-1.764,-1.7632,-1.7631,-1.7631,-1.7631,0,-1.7612,-1.7604,-1.7629,-1.7627,-1.7627,-1.7646,-1.7644,-1.7658,-1.7653,-1.7671,-1.7674,-1.7667,-1.768,-1.7671,-1.7685,-1.768,-1.771,-1.7704,-1.7709,-1.7707,-1.7731,-1.7728,-1.7809,-1.7819,-1.7745,-1.7745,-1.7746,0,-1.7649,-1.7667,-1.7666,-1.7674,-1.7676,-1.769,-1.7697,-1.7684,-1.7692,-1.7697,-1.771,-1.7722,-1.7731,-1.7754,-1.7749,-1.776,-1.7753,-1.7781,-1.7754,-1.7757,-1.7753,-1.7751,-1.7753,-1.7786,-1.7787,-1.7787,-1.7788,0,-1.7716,-1.7711,-1.7721,-1.7731,-1.774,-1.7746,-1.7752,-1.7759,-1.7747,-1.7757,-1.777,-1.7777,-1.7791,-1.7803,-1.7812,-1.7812,-1.7798,-1.7796,-1.7802,-1.7806,-1.7808,-1.7806,-1.7723,-1.7794,-1.7794,-1.7793,-1.7793,-1.7793,-1.7765,-1.778,-1.7781,-1.7794,-1.7796,-1.7802,-1.7814,-1.7811,-1.7822,-1.7832,-1.7824,-1.784,-1.7842,-1.7852,-1.7854,-1.7867,-1.7855,-1.7864,-1.7866,-1.7868,-1.7871,-1.7806,-1.7868,-1.7868,-1.7868,-1.7868,-1.7868,0,-1.7831,-1.783,-1.7842,-1.785,-1.7859,-1.7845,-1.785,-1.7859,-1.7874,-1.7877,-1.7886,-1.7901,-1.7913,-1.7909,-1.7919,-1.793,-1.7924,-1.7933,-1.7932,-1.7932,-1.7881,-1.7875,-1.7938,-1.7938,-1.7938,-1.7938,-1.7938,-1.7938,-1.7866,-1.7889,-1.7884,-1.7908,-1.7908,-1.7923,-1.7927,-1.7932,-1.7934,-1.7952,-1.7962,-1.7959,-1.796,-1.797,-1.7979,-1.7978,-1.7982,-1.7994,-1.799,-1.7943,-1.7936,-1.7929,-1.7923,-1.7995,-1.7995,-1.804,-1.804,-1.8041]},{"header":{"parameterUnit":"m.s-1","parameterCategory":1,"la1":30.2991,"la2":30.254,"lo1":-89.0895,"lo2":-89.0444,"dy":0.0017,"dx":0.0017,"nx":28,"ny":28,"refTime":"2025-02-03T03:00:00:Z","depth":0,"parameterNumber":3,"parameterNumberName":"V-component_of_WINDS"},"data":[0,0,0,0,0,0,0,0,0,0,0,0,0,0,0,0,0,0,0,0,0,0,0,0,0,0,0,0,0,0,0,0,0,0,0,0,0,0,0,0,0,0,0,0,0,0,0,0,0,0,0,0,0,0,0,0,0,0,0.7532,0.7533,0,0.7606,0.7607,0.7608,0.7634,0.7634,0.7633,0.7633,0.7708,0.7711,0.7713,0,0,0,0,0,0,0,0,0,0,0,0,0,0.7412,0.7414,0.7532,0.7533,0.7534,0.7606,0.7607,0.7608,0.7634,0.7634,0.7633,0.7633,0.7708,0.771,0.7713,0,0,0,0,0,0,0,0,0,0,0,0,0,0.7473,0.7415,0.7532,0.7555,0.7558,0.7606,0.7607,0.7609,0.7634,0.7634,0.7633,0.7633,0.7707,0.771,0.7713,0.7743,0,0,0.7724,0.7725,0,0,0,0,0,0,0,0,0.7469,0.7477,0.7551,0.7554,0.7557,0.7611,0.7593,0.7654,0.7634,0.7605,0.7633,0.7633,0.7676,0.7682,0.7697,0.7747,0.775,0.7724,0.7726,0.7728,0.7729,0,0,0,0,0,0,0,0.7465,0.7474,0.7561,0.7552,0.7556,0.7562,0.757,0.7604,0.7642,0.7608,0.761,0.7618,0.7678,0.7693,0.7699,0.7751,0.7724,0.7727,0.7729,0.773,0.783,0.7831,0,0,0,0,0,0,0.7457,0.7471,0.7559,0.7564,0.7511,0.7565,0.7574,0.7594,0.7642,0.7649,0.7619,0.7619,0.7688,0.7695,0.7702,0.7741,0.7728,0.7731,0.7733,0.783,0.783,0.7831,0,0,0,0,0,0,0.7454,0.7465,0.7556,0.7518,0.753,0.7567,0.7589,0.7595,0.7611,0.765,0.7657,0.7628,0.7688,0.7697,0.7733,0.7743,0.7732,0.7735,0.7829,0.783,0.7831,0.7818,0,0,0,0,0,0,0.7451,0.7464,0.7475,0.7518,0.7532,0.7586,0.759,0.7597,0.7617,0.7619,0.7661,0.7667,0.7688,0.7728,0.7736,0.7748,0.7738,0.7828,0.7829,0.783,0.7818,0.7818,0.7819,0,0,0,0,0,0.7446,0.7468,0.7475,0.7486,0.7547,0.7587,0.7595,0.7619,0.7618,0.763,0.7655,0.7666,0.7741,0.7731,0.7741,0.7754,0.7828,0.7829,0.783,0.7817,0.7818,0.7819,0,0,0,0,0,0,0.7425,0.7474,0.7483,0.7519,0.7548,0.7591,0.7607,0.7619,0.7649,0.7649,0.7678,0.7687,0.7721,0.7741,0.7729,0.7786,0.7785,0.7788,0.7772,0.7773,0.7773,0.7768,0.7741,0,0,0,0,0,0.7424,0.7452,0.7494,0.7521,0.7536,0.7569,0.7587,0.7603,0.7635,0.7647,0.7675,0.7705,0.7736,0.7755,0.7786,0.7821,0.7831,0.7834,0.7835,0.7835,0.7838,0.786,0.7862,0.7836,0.7836,0.7836,0,0,0.7423,0.7454,0.7469,0.7518,0.7543,0.7572,0.7579,0.7609,0.7631,0.7652,0.7688,0.771,0.7745,0.7781,0.7799,0.7799,0.7848,0.7837,0.7837,0.784,0.7861,0.7864,0.7866,0.7837,0.7836,0.7836,0,0,0.7436,0.7462,0.7488,0.7513,0.7551,0.7573,0.758,0.7621,0.7636,0.7673,0.769,0.7717,0.7768,0.7793,0.7813,0.7837,0.7849,0.7846,0.785,0.787,0.7872,0.7874,0.7884,0.7887,0.7849,0.7849,0.7849,0,0.743,0.7474,0.75,0.753,0.7551,0.7572,0.76,0.7623,0.7669,0.7683,0.7683,0.775,0.7775,0.7818,0.7824,0.7839,0.7848,0.7842,0.787,0.7872,0.7875,0.7884,0.7888,0.7848,0.7848,0.7848,0.7848,0,0.7466,0.7496,0.7513,0.7558,0.7581,0.7609,0.764,0.766,0.7674,0.7697,0.7735,0.7766,0.7804,0.7815,0.7829,0.786,0.786,0.7865,0.7864,0.7876,0.7886,0.7889,0.7848,0.7848,0.7848,0.7848,0,0,0.7466,0.7526,0.7532,0.7553,0.7597,0.7621,0.7651,0.7688,0.7706,0.7737,0.7763,0.7807,0.7812,0.7834,0.7852,0.7869,0.7888,0.7872,0.7874,0.7875,0.7926,0.7923,0.7926,0.7896,0.7897,0.7897,0.7923,0,0.7486,0.754,0.7565,0.7608,0.7637,0.7659,0.7685,0.7715,0.7736,0.7764,0.7788,0.782,0.7824,0.7837,0.7856,0.7882,0.7899,0.788,0.7921,0.7922,0.7912,0.7931,0.7927,0.795,0.7927,0.7928,0.7928,0,0.7515,0.7548,0.7594,0.7636,0.7649,0.7672,0.7709,0.7736,0.777,0.7785,0.7811,0.7828,0.786,0.7857,0.7903,0.789,0.7908,0.7923,0.7925,0.793,0.7926,0.7937,0.7958,0.7962,0.7934,0.7934,0.7933,0,0.7512,0.7567,0.7602,0.762,0.7669,0.7685,0.7707,0.7741,0.7763,0.7795,0.7809,0.7845,0.7864,0.7891,0.7918,0.7913,0.7961,0.796,0.7975,0.7974,0.7984,0.7983,0.8008,0.7994,0.7994,0.7994,0.7994,0,0.7532,0.7559,0.7602,0.7624,0.7656,0.7684,0.7715,0.7738,0.7769,0.7796,0.7816,0.7841,0.7874,0.7903,0.7923,0.7959,0.7967,0.798,0.7985,0.7979,0.7977,0.7991,0.799,0.7995,0.7995,0.7995,0.7995,0,0.7534,0.7563,0.7603,0.7647,0.7659,0.7681,0.7719,0.7741,0.7764,0.7798,0.7808,0.7844,0.7879,0.7908,0.7954,0.7968,0.8005,0.8011,0.7994,0.7997,0.801,0.8008,0.8045,0.8052,0.8033,0.8033,0.8033,0,0.7544,0.7566,0.7613,0.7633,0.7655,0.7686,0.7708,0.7738,0.776,0.7803,0.782,0.7857,0.7888,0.7943,0.7974,0.8009,0.8017,0.8027,0.8022,0.8015,0.8018,0.8016,0.8019,0.8028,0.8028,0.8028,0.8028,0,0.756,0.7574,0.7606,0.7643,0.7669,0.77,0.7731,0.7746,0.7781,0.7805,0.7842,0.7867,0.7914,0.7951,0.799,0.8012,0.8026,0.8029,0.8035,0.8028,0.8018,0.8025,0.7996,0.8028,0.8028,0.8028,0.8028,0.8028,0.7568,0.7589,0.7626,0.7661,0.7687,0.7716,0.774,0.7766,0.7798,0.7839,0.7855,0.7893,0.7928,0.7983,0.8005,0.8035,0.8037,0.8044,0.8046,0.8048,0.8047,0.8013,0.8043,0.8043,0.8043,0.8043,0.8043,0,0.7585,0.7611,0.7642,0.7686,0.7714,0.7725,0.776,0.7783,0.7816,0.7848,0.7879,0.7922,0.7958,0.7992,0.803,0.8048,0.8055,0.8057,0.8056,0.8061,0.8044,0.8036,0.805,0.805,0.805,0.805,0.805,0.805,0.7598,0.7635,0.7653,0.7704,0.7729,0.7767,0.7786,0.7813,0.7839,0.7887,0.7917,0.7939,0.7973,0.8013,0.8047,0.8056,0.8069,0.807,0.808,0.8063,0.8062,0.8061,0.8054,0.8072,0.8072,0.8096,0.8096,0.8096]}]]